Location: East Irvine
(33.6759°N, 117.7598°W)
Time: 00:49:32
(UTC+00:00)

Cosmos 304 Rocket - Pass Details

Date: 15 November 2025
Orbit: 668 x 677 km, 74.0° (Epoch: 07 December)

Event Time Altitude Azimuth Distance (km) Brightness Sun altitude
Rises 02:10:24 0° 182° (S) 2,994 7.2 -17.2°
Reaches altitude 10° 02:12:44 10° 177° (S) 2,086 6.3 -17.7°
Maximum altitude 02:17:15 48° 103° (ESE) 870 3.9 -18.6°
Enters shadow 02:18:39 36° 56° (NE) 1,054 4.2 -18.9°
